Regional Weather Roundup
Issued by NWS Upton, NY

Current Version | Previous Version | Text Only | Print | Product List | Glossary On
Versions: 1 2 3 4 5 6 7 8 9 10 11 12 13 14 15 16 17 18 19 20 21 22 23 24 25 26 27 28 29 30 31 32 33 34 35 36 37 38 39 40 41 42 43 44 45 46 47 48 49 50
000 ASUS41 KOKX 251805 RWROKX REGIONAL WEATHER ROUNDUP NATIONAL WEATHER SERVICE NEW YORK NY 200 PM EDT MON JUL 25 2016 NOTE: "FAIR" INDICATES FEW OR NO CLOUDS BELOW 12,000 FEET WITH NO SIGNIFICANT WEATHER AND/OR OBSTRUCTIONS TO VISIBILITY. NYZ071-072-176-178-NJZ106-104-251900- NEW YORK CITY METRO AREA CITY SKY/WX TMP DP RH WIND PRES REMARKS Central Park SUNNY 93 71 48 S3 29.90F HX 100 LaGuardia APRT MOSUNNY 92 72 51 SE8 29.87F HX 99 Kennedy INTL PTSUNNY 84 71 65 S9 29.90F Newark/Liberty PTSUNNY 95 69 42 W10 29.87F HX 100 BRNX BOT. GARD N/A 90 72 55 S1 29.89F HX 96 Wall St Helipt CLEAR 90 73 58 SW6 29.89F HX 98 Teterboro SUNNY 91 71 51 SE8G18 29.85F HX 97 $$ NYZ177-179-078>081-251900- LONG ISLAND NEW YORK CITY SKY/WX TMP DP RH WIND PRES REMARKS FARMINGDALE SUNNY 84 72 67 S13 29.90F ISLIP PTSUNNY 86 72 62 SW16 29.90F HX 92 SHIRLEY MOSUNNY 84 72 67 SW17 29.92S RIVERHEAD NOT AVBL WESTHAMPTON SUNNY 82 70 66 SW16G23 29.92F SOUTHAMPTON N/A 79 72 78 SW8 29.87F BRIDGEHAMPTON N/A 84 72 65 N3 29.90S EAST HAMPTON FAIR 80 70 69 SW15 29.91S MONTAUK POINT N/A 80 69 69 S8G18 29.93S $$ NYZ052-065-067-251900- HUDSON VALLEY CITY SKY/WX TMP DP RH WIND PRES REMARKS WHITE PLAINS MOSUNNY 88 72 58 SE10 29.88F HX 94 NEWBURGH PTSUNNY 90 70 51 SW6 29.89F HX 95 MONTGOMERY LGT RAIN 81 69 67 NW29G53 29.92R SQUALL POUGHKEEPSIE CLOUDY 95 65 37 W9 29.85F HX 97 ALBANY LGT RAIN 81 69 67 W7 29.87S $$ NJZ001-105-106-008-010-013-015-019>022-104-251900- NEW JERSEY CITY SKY/WX TMP DP RH WIND PRES REMARKS NEWARK/LIBERTY PTSUNNY 95 69 42 W10 29.87F HX 100 TETERBORO SUNNY 91 71 51 SE8G18 29.85F HX 97 CALDWELL SUNNY 94 71 47 VRB6 29.86F HX 101 MORRISTOWN MOSUNNY 95 70 43 SW9 29.88F HX 101 SOMERVILLE SUNNY 95 70 44 VRB7 29.86F HX 101 SUSSEX CLOUDY 92 72 51 VRB6 29.89S HX 99 ANDOVER N/A 90 71 53 VRB3 29.90F HX 96 TRENTON MOSUNNY 92 74 55 VRB6 29.89F HX 101 MILLVILLE SUNNY 94 74 52 SW7 29.91F HX 104 ATLANTIC CITY MOSUNNY 90 77 65 SE12 29.91F HX 103 WRIGHTSTOWN SUNNY 92 76 59 VRB6 29.87F HX 104 TOMS RIVER SUNNY 95 75 52 SW7 29.90F HX 107 BELMAR SUNNY 91 73 55 SW8 29.91F HX 99 $$ PAZ047>061-062-071-251900- EASTERN PENNSYLVANIA CITY SKY/WX TMP DP RH WIND PRES REMARKS PHILADELPHIA PTSUNNY 94 75 54 SW9 29.89F HX 105 ALLENTOWN MOSUNNY 95 72 47 SW7 29.88F HX 103 SCRANTON CLOUDY 91 72 53 VRB7 29.90F HX 98 $$ CTZ002-004>006-009-010-012-RIZ004-006-007-MAZ004-011-015-251900- SOUTHERN NEW ENGLAND IN CT CITY SKY/WX TMP DP RH WIND PRES REMARKS BRADLEY INTL PTSUNNY 94 65 38 S12G18 29.84F HX 96 HARTFORD SUNNY 94 70 45 S12G17 29.85F HX 100 DANBURY MOSUNNY 91 71 51 SW8 29.88F HX 97 WTRBRY/OXFORD PTSUNNY 88 70 55 SW7 29.93F HX 92 BRIDGEPORT SUNNY 86 71 60 SW10 29.89S HX 91 MERIDEN SUNNY 91 70 49 S14 29.87F HX 96 NEW HAVEN SUNNY 85 71 63 SW8 29.89F HX 90 CHESTER FAIR 86 68 54 SW10G16 29.91S GROTON SUNNY 83 70 64 S7 29.89F WILLIMANTIC NOT AVBL IN RI CITY SKY/WX TMP DP RH WIND PRES REMARKS PROVIDENCE MOSUNNY 91 65 41 SW14G23 29.88F HX 93 BLOCK ISLAND CLOUDY 79 69 71 SW13 29.92F WESTERLY MOSUNNY 85 65 51 SW12G17 29.92S IN MA CITY SKY/WX TMP DP RH WIND PRES REMARKS BOSTON PTSUNNY 80 69 69 E10 29.85F WORCESTER CLOUDY 88 62 41 SW13 29.91S WESTFIELD MOSUNNY 94 67 41 S9G22 29.84S HX 97 PROVINCETOWN SUNNY 86 72 62 SW16G22 29.88F HX 92 NANTUCKET CLOUDY 76 71 85 S14 29.93F $$ ANZ330-335-338-340-345-350-353-355-251900- COASTAL MARINE OBSERVATIONS STATION/POSITION TIME SKY/WX TEMP WIND PRES VSBY WAVE AIR SEA DIR/SP/G HT/PER (UTC) (F) (DEG/KT/KT) (MB) (MI) (FT/S) NY HARB ENTRANCE 1650 75 75 200/ 6/ 8 1012.9 2/ 3 20S FIRE ISLAND 1650 74 72 190/ 12/ 14 1012.9 3/ 5 GREAT SOUTH BAY 1700 77 81 230/ 16/ 17 N/A 23 SSW MONTAUK P 1650 75 73 240/ 4/ 4 1014.0 2/ 4 15 E BARNEGAT LI 1722 75 N/A 2/ 8 HUDSON CANYON 1650 77 77 1013.5 2/ 6 KINGS POINT 1700 81 74 1011.9 EXECUTION ROCKS 1700 81 180/ 8/ 10 N/A CENTRAL LI SOUND NOT AVBL EASTERN LI SOUND 1700 77 73 150/ 4/ 6 N/A ROBBINS REEF 1700 79 160/ 16/ 16 1011.4 $$ >>>>>>>>>>>>>>>>>>>>>>>>>>>> KEY <<<<<<<<<<<<<<<<<<<<<<<<<<< > < > SKY/WX - SKY CONDITION/PRESENT WEATHER < > TMP - TEMPERATURE IN FAHRENHEIT < > DP - DEWPOINT IN FAHRENHEIT < > RH - RELATIVE HUMIDITY IN PERCENT < > WIND - DIRECTION AND SPEED IN MPH < > PRES - MEAN SEA LEVEL PRESSURE IN INCHES OF HG < > WCI - WIND CHILL INDEX < > VSB - VISIBILITY IN MILES < > HX - HEAT INDEX < > TC - TEMPERATURE IN CELSIUS < > VRB - VARIABLE WIND DIRECTION < > < >>>>>>>>>>>>>>>>>>>>>>>>>>>> KEY <<<<<<<<<<<<<<<<<<<<<<<<<<<

USA.gov is the U.S. government's official web portal to all federal, state and local government web resources and services.